EDT,Max TemperatureF,Mean TemperatureF,Min TemperatureF,Max Dew PointF,MeanDew PointF,Min DewpointF,Max Humidity, Mean Humidity, Min Humidity, Max Sea Level PressureIn, Mean Sea Level PressureIn, Min Sea Level PressureIn, Max VisibilityMiles, Mean VisibilityMiles, Min VisibilityMiles, Max Wind SpeedMPH, Mean Wind SpeedMPH, Max Gust SpeedMPH,PrecipitationIn, CloudCover, Events, WindDirDegrees
2012-9-1,78,72,66,70,66,64,100,86,65,30.37,30.32,30.28,10,10,5,14,9,18,0.02,3,Rain-Thunderstorm,274
2012-9-2,75,70,64,70,66,63,100,89,73,30.28,30.22,30.16,10,9,0,15,6,18,0.09,6,Fog-Rain-Thunderstorm,209
2012-9-3,66,65,64,66,66,64,100,100,100,30.22,30.19,30.15,0,0,0,12,5,18,0.00,8,Fog-Rain,155
2012-9-4,69,66,64,68,66,64,100,100,94,30.19,30.14,30.09,10,2,0,12,7,16,0.10,8,Fog-Rain,183
2012-9-5,75,70,66,70,68,66,100,94,78,30.10,30.07,30.04,10,7,0,10,6,,0.16,6,Fog-Rain-Thunderstorm,238
2012-9-6,75,70,64,66,64,61,94,82,61,30.16,30.13,30.10,10,10,10,8,4,,0.00,3,,240
2012-9-7,77,70,62,66,62,57,100,77,53,30.18,30.14,30.08,10,9,4,9,6,,0.00,1,,192
2012-9-8,69,64,57,64,62,57,100,87,78,29.91,29.89,29.86,10,8,0,23,18,47,0.07,7,Fog-Rain,257
2012-9-9,60,60,55,50,47,45,72,66,59,30.08,30.07,30.06,10,10,10,10,9,16,0.00,2,,308
2012-9-10,62,56,50,48,43,37,94,59,39,30.29,30.24,30.22,10,10,10,13,8,21,0.00,1,,328
2012-9-11,64,58,51,48,46,39,72,61,55,30.42,30.40,30.31,10,10,10,8,4,,0.00,0,,139
2012-9-12,69,64,57,55,53,48,77,67,56,30.49,30.46,30.44,10,10,10,7,4,,0.00,1,,151
2012-9-13,69,60,51,55,51,46,88,66,43,30.50,30.45,30.41,10,8,3,8,5,,0.00,0,,148
2012-9-14,69,60,51,55,50,45,77,68,53,30.43,30.36,30.32,10,9,5,10,7,,0.00,1,,256
2012-9-15,64,60,53,57,52,45,100,80,59,30.35,30.31,30.27,10,8,1,10,5,,0.00,3,,354
2012-9-16,60,56,51,55,50,45,100,83,67,30.29,30.24,30.20,10,10,7,9,4,,0.00,3,,157
2012-9-17,62,58,55,59,56,54,100,96,82,30.21,30.16,30.05,10,4,0,9,6,,0.46,6,Fog-Rain,193
2012-9-18,62,56,48,63,58,48,100,100,100,30.02,29.87,29.78,10,1,0,22,13,32,2.91,8,Rain,241
2012-9-19,60,52,44,48,44,39,100,80,48,30.24,30.14,29.99,10,10,2,14,8,21,0.00,3,,305
2012-9-20,62,55,48,55,52,46,100,93,77,30.24,30.21,30.17,10,9,0,12,6,17,0.00,5,Fog,182
2012-9-21,69,61,53,55,54,52,100,83,56,30.20,30.15,30.09,10,7,3,17,10,22,0.00,0,,233
2012-9-22,68,60,51,55,51,39,94,74,56,30.10,30.05,30.01,10,5,2,22,14,30,0.00,3,,249
2012-9-23,57,47,37,39,34,32,87,65,41,30.25,30.18,30.10,10,10,10,14,9,23,0.00,0,,297
2012-9-24,57,48,39,39,35,30,81,64,36,30.30,30.25,30.22,10,10,10,14,6,20,0.00,0,,267
2012-9-25,60,53,46,52,43,37,100,73,48,30.30,30.25,30.20,10,10,1,17,13,23,0.16,2,Rain-Thunderstorm,242
2012-9-26,69,62,55,59,55,52,88,79,64,30.33,30.28,30.23,10,10,4,18,14,25,0.00,2,,247
2012-9-27,71,65,59,57,56,54,94,76,56,30.34,30.29,30.25,10,10,7,15,11,20,0.01,2,Rain-Thunderstorm,260
2012-9-28,60,58,55,59,57,55,100,99,88,30.25,30.18,30.12,10,2,0,16,11,17,0.18,7,Fog-Rain-Thunderstorm,267
2012-9-29,60,53,46,55,49,41,100,84,59,30.13,30.08,30.00,10,7,0,12,6,,0.00,6,Fog-Rain,310
2012-9-30,59,52,44,46,42,37,93,73,59,30.03,29.98,29.94,10,10,7,13,5,18,0.00,2,,265